Location: Bevere
(50.8496°N, 3.5873°E)
Time: 22:50:13
(UTC+00:00)

Daily predictions for brighter satellites

Satellite Brightness Start Highest point End
(mag) Time Altitude Azimuth Time Altitude Azimuth Time Altitude Azimuth
Iridium 45 4.2 16:13:25 10° S 16:16:35 87° E 16:19:49 10° N
CENTAUR R/B 2.6 16:11:17 10° SW 16:17:00 85° NW 16:24:20 10° NE
SJ 16-02 3.9 16:18:49 10° NW 16:19:48 11° NW 16:20:47 10° NNW
Cosmos 1455 Rocket 3.2 16:17:36 10° SSW 16:21:55 77° WNW 16:26:19 10° N
Cosmos 1602 Rocket 4.3 16:18:35 10° N 16:22:30 30° ENE 16:26:22 10° SE
Cosmos 2279 Rocket 4.3 16:18:29 10° SSE 16:24:24 49° E 16:30:22 10° NNE
Cosmos 1570 Rocket 4.0 16:20:31 10° NNW 16:25:54 83° ENE 16:31:13 10° SSE
Cosmos 1092 Rocket 4.1 16:20:29 10° NNW 16:26:40 82° W 16:32:47 10° S
Cosmos 836 Rocket 4.5 16:23:55 10° NNW 16:29:11 80° ENE 16:34:27 10° SSE
SMAP 3.3 16:26:39 10° SE 16:31:06 47° ENE 16:35:35 10° N
Cosmos 1656 4.0 16:26:24 10° S 16:31:46 48° ESE 16:37:13 10° NE
UNK 4.4 16:28:22 10° NNE 16:32:34 34° E 16:36:44 10° SSE
Cosmos 1867 3.8 16:29:51 10° NW 16:35:09 48° NE 16:40:24 10° ESE
NOSS 2-2 (C) 2.6 16:32:01 10° SW 16:35:14 89° NW 16:38:06 11° NE
YAOGAN 1 4.2 16:33:02 10° E 16:35:17 14° ENE 16:37:32 10° NNE
Cosmos 2228 2.9 16:31:19 10° S 16:35:33 79° E 16:39:49 10° NNE
Landsat 7 4.1 16:32:15 10° SE 16:36:36 41° ENE 16:40:59 10° N
SAR-Lupe-4 4.3 16:33:42 10° SE 16:36:53 32° ENE 16:40:05 10° N
Cosmos 2297 Rocket 2.2 16:33:39 10° NNW 16:39:21 69° ENE 16:44:59 10° SE
USA 290 2.4 16:36:20 10° NNW 16:39:31 47° ENE 16:42:40 10° SE
USA 215 3.6 16:35:34 10° ENE 16:41:54 53° N 16:48:14 10° WNW
Cosmos 773 Rocket 4.0 16:37:29 10° NNW 16:42:43 83° ENE 16:47:58 10° SSE
Cosmos 1782 2.6 16:42:28 10° S 16:45:59 53° E 16:49:30 10° NNE
ATLAS CENTAUR R/B 1.0 16:43:05 10° NW 16:46:21 68° SW 16:49:29 10° SSE
CZ-4C R/B 2.9 16:40:26 10° NW 16:47:04 71° NE 16:55:27 10° SE
Cosmos 1607 3.9 16:42:13 10° NW 16:48:28 80° NE 16:54:46 10° SE
Cosmos 1733 0.8 16:47:47 10° N 16:49:24 86° WSW 16:50:58 10° S
CZ-2D R/B 3.1 16:49:26 10° SE 16:52:22 39° ENE 16:55:22 10° N
Lacrosse 4 Rocket 2.6 16:51:24 10° WSW 16:55:08 34° NW 16:58:49 10° NNE
Meteor 1-25 Rocket 4.5 16:49:30 10° N 16:55:10 48° ENE 17:00:44 10° SE
IRS-P3 4.3 16:50:24 10° SE 16:55:28 47° ENE 17:00:33 10° N
Cosmos 2219 4.2 16:51:02 10° NNW 16:55:45 25° NE 16:59:37 13° E
Cosmos 1825 Rocket 4.2 16:52:21 10° N 16:56:20 33° ENE 17:00:14 10° SE
ARIANE 5 R/B 2.5 16:52:10 10° SSE 16:57:09 64° ENE 17:02:15 10° N
Cosmos 1758 Rocket 3.6 16:54:21 10° NNW 16:58:41 83° W 17:02:58 10° S
Cosmos 2266 Rocket 4.0 16:52:38 10° N 16:58:46 60° ENE 17:04:46 10° SSE
Cosmos 1315 Rocket 3.8 16:55:27 10° SW 16:59:07 44° WNW 17:02:49 10° N
Cosmos 2098 Rocket 3.0 16:58:20 10° S 17:02:23 71° E 17:07:14 10° NNE
Cosmos 2208 Rocket 4.3 16:57:14 10° NNW 17:02:23 70° WSW 17:07:32 10° SSE
Cosmos 2151 2.8 16:59:53 10° N 17:04:02 70° ENE 17:08:12 10° SSE
Cosmos 1743 2.2 17:01:28 10° N 17:04:45 89° ENE 17:07:59 10° S
SPOT 1/Viking Rocket 3.9 17:02:21 10° SE 17:07:11 40° ENE 17:12:02 10° N
Cosmos 1980 Rocket 3.6 17:03:51 10° SE 17:07:16 17° E 17:08:01 16° E
Cosmos 1844 Rocket 4.3 17:06:34 10° N 17:09:54 16° NNE 17:10:59 15° NE
SL-16 R/B 2.9 17:09:19 10° NNE 17:15:30 65° WNW 17:21:37 10° SSW
Cosmos 2263 Rocket 2.6 17:12:15 10° NNW 17:17:37 41° NE 17:22:58 10° ESE
NOSS 3-2 (C) 3.3 17:14:19 10° SSW 17:19:14 55° SE 17:23:02 21° NE
NOSS 3-2 (A) 3.3 17:14:08 10° SW 17:19:15 75° NW 17:24:05 17° NE
Cosmos 783 Rocket 4.5 17:18:10 10° NNW 17:23:30 86° ENE 17:28:48 10° SSE
GEOS 3 Rocket 3.7 17:19:36 17° NE 17:23:48 88° NW 17:29:11 10° SW
CZ-4 R/B 4.4 17:20:09 10° SE 17:23:56 49° ENE 17:27:47 10° N
MOS 1 Rocket 3.4 17:19:29 10° SSE 17:24:22 78° ENE 17:29:34 10° N
BREEZE M DEB (TANK) 3.1 17:23:15 10° SW 17:25:12 24° SSE 17:25:20 23° SSE
Cosmos 1076 Rocket 3.8 17:21:39 10° N 17:25:44 41° ENE 17:29:49 10° SE
AQUARIUS 4.0 17:22:58 10° SSE 17:27:22 88° E 17:31:49 10° NNW
Cosmos 1933 3.2 17:24:47 10° S 17:28:32 56° E 17:30:45 23° NNE
SJ-12 3.9 17:26:31 10° S 17:30:17 72° WSW 17:34:05 10° NNW
Cosmos 2084 Rocket 3.7 17:26:10 10° NW 17:30:21 68° SW 17:34:32 10° SSE
Cosmos 2227 Rocket 2.1 17:24:51 10° NNW 17:30:32 75° ENE 17:36:11 10° SE
Cosmos 1538 Rocket 4.3 17:26:26 10° NNW 17:31:30 45° ENE 17:36:28 11° SE
Cosmos 1606 Rocket 3.6 17:27:42 10° S 17:32:01 58° E 17:35:23 16° NNE
Cosmos 2360 4.2 17:27:04 10° SSW 17:32:48 86° WNW 17:37:25 17° NNE
Cosmos 1900 4.5 17:27:57 10° NW 17:33:02 78° SW 17:37:59 10° SSE
Cosmos 2369 Rocket 4.3 17:32:09 10° WNW 17:35:53 18° NNW 17:39:39 10° N
PSLV R/B 3.8 17:36:04 32° ESE 17:37:05 39° ENE 17:40:53 10° N
CZ-2D R/B 3.5 17:33:44 10° SSE 17:37:51 55° ENE 17:41:54 10° N
COSMO-SKYMED 1 3.5 17:39:14 28° ESE 17:39:14 28° ESE 17:42:03 10° SSE
NOSS 2-2 (D) 3.6 17:36:07 10° WSW 17:39:10 42° NW 17:40:03 32° N
SL-19 R/B 4.3 17:36:24 10° SE 17:41:37 52° ENE 17:47:07 10° N
Resurs 1-3 3.7 17:37:43 10° SE 17:41:51 49° ENE 17:46:02 10° N
Cosmos 1503 Rocket 3.9 17:37:13 10° SSW 17:42:28 87° ESE 17:46:10 20° NNE
BREEZE-M DEB (TANK) 3.7 17:39:36 10° W 17:42:53 76° S 17:48:33 22° ESE
Cosmos 1697 Rocket 2.6 17:42:23 10° SSW 17:47:54 65° ESE 17:50:44 29° NE
Okean 1-7 Rocket 4.1 17:44:41 10° NNW 17:49:02 59° W 17:53:19 10° S
Lacrosse 5 rocket 2.0 17:46:03 10° WNW 17:49:29 34° NNW 17:49:58 32° N
Cosmos 1354 Rocket 3.9 17:45:28 10° SSW 17:50:43 74° ESE 17:53:34 28° NNE
BREEZE-M DEB (TANK) 3.8 17:48:39 10° W 17:52:06 77° N 17:57:03 28° E
Cosmos 1461 2.6 17:49:37 10° SW 17:53:31 90° SW 17:54:17 57° NE
NOSS 2-2 (E) 3.6 17:51:03 10° WSW 17:54:03 38° NW 17:54:25 36° NNW
Spot 4 Rocket 3.9 17:50:33 10° SSE 17:55:37 74° ENE 18:00:45 10° NNW
IRAS Rocket 4.1 17:51:25 10° SSE 17:56:50 66° ENE 18:02:17 10° NNW
Cosmos 1726 Rocket 3.5 17:52:39 10° S 17:57:17 77° E 17:59:49 27° NNE
Cosmos 1655 Rocket 3.9 17:53:50 10° N 18:00:07 88° ENE 18:06:21 10° S
SKYMED 2 3.4 17:59:36 41° NNE 18:01:03 75° ESE 18:05:22 10° S
Cosmos 1777 Rocket 4.5 17:56:27 10° SW 18:01:38 60° WNW 18:05:19 19° NNE
Gbstr 26 Del rocket 3.4 17:59:09 10° SW 18:02:38 40° SSE 18:02:38 40° SSE
Radarsat Rocket 4.5 17:56:12 10° SSE 18:04:23 79° ENE 18:11:41 10° NNW
Meteor 2-10 3.9 18:02:02 10° N 18:07:22 72° ENE 18:12:51 10° SSE
CENTAUR R/B 3.7 18:02:46 10° W 18:08:38 37° NNW 18:12:28 23° NNE
Meteor 2-20 Rocket 4.4 18:03:46 10° S 18:09:51 56° E 18:12:30 32° NNE
YAOGAN 1 2.4 18:06:16 10° SSE 18:10:32 86° WSW 18:14:49 10° NNW
USA 281 4.3 18:17:15 26° NNE 18:17:15 26° NNE 18:21:44 10° NNW
Cosmos 2082 3.7 18:10:52 10° NNW 18:16:32 58° NE 18:17:04 56° E
Meteor 1-26 Rocket 4.3 18:13:33 10° S 18:18:03 50° SE 18:18:03 50° SE
USA 238 DEB 3.6 18:13:31 10° SSW 18:19:22 50° ESE 18:19:57 49° ESE
USA 238 3.7 18:13:38 10° SSW 18:19:30 50° ESE 18:20:02 49° ESE
Resurs 01 Rocket 4.0 18:25:00 12° N 18:25:00 12° N 18:25:25 10° N
Cosmos 1953 Rocket 4.0 18:18:58 10° NNW 18:23:21 61° W 18:27:44 10° S
USA 215 3.3 18:22:49 48° ENE 18:24:28 62° NNE 18:30:55 10° WNW
Cosmos 372 Rocket 4.4 18:22:36 10° S 18:26:26 46° SSE 18:26:26 46° SSE
Aureole 1 Rocket 3.9 18:24:22 10° S 18:27:16 42° S 18:27:16 42° S
Lacrosse 4 Rocket 4.0 18:33:30 10° NNW 18:34:08 10° NNW 18:34:34 10° NNW
CZ-4C R/B 4.2 18:28:47 10° NW 18:35:23 41° WSW 18:43:16 10° S
USA 81 4.3 18:31:42 10° N 18:36:56 66° W 18:42:08 10° S
Cosmos 990 Rocket 4.4 18:33:21 10° SW 18:38:23 57° WNW 18:39:47 43° N
Cosmos 2219 3.2 18:34:49 10° NNW 18:40:35 84° WSW 18:41:34 63° SSE
NOAA 6 4.2 18:35:50 10° S 18:40:55 69° WSW 18:46:02 10° NNW
Cosmos 1980 Rocket 2.2 18:44:46 10° SSW 18:49:48 72° SSW 18:49:48 72° SSW
Cosmos 2058 Rocket 4.5 18:49:20 10° SSW 18:51:55 33° SW 18:51:55 33° SW
Cosmos 1844 Rocket 4.0 18:49:44 10° NNW 18:52:38 29° N 18:52:38 29° N
Cosmos 2263 Rocket 3.2 18:56:14 10° NW 19:01:34 43° WSW 19:04:58 21° S
Cosmos 1553 Rocket 4.0 19:00:46 10° SSW 19:06:49 77° W 19:06:49 77° W
NOSS 3-2 (C) 4.1 19:05:08 10° W 19:10:16 43° NNW 19:10:27 43° NNW
Cosmos 2227 Rocket 4.5 19:09:49 10° NW 19:13:58 22° W 19:18:07 10° SSW
Cosmos 1697 Rocket 4.2 19:27:24 10° WSW 19:32:18 30° NW 19:32:29 30° NW
CENTAUR R/B 4.2 19:54:55 10° NW 19:59:34 30° NNW 19:59:34 30° NNW
USA 215 4.4 20:10:10 38° WNW 20:10:10 38° WNW 20:14:01 10° WNW
